Temperature
17 18 18 18 18 17 16 16 16 16 17 17 17 17 17 17 17 17 17 17 17 18 17 17 17 17 17 16 16 16 16 15 15 15 15 15 14 14 14 14 13 13 13 13
18 18 18 18 17 17 17 17 16 17 17 17 17 17 17 17 17 17 17 18 18 18 17 17 17 17 17 16 16 16 16 15 15 15 14 14 14 14 14 13 13 13 13 13
16 17 18 17 18 17 17 17 17 17 18 17 16 16 16 16 17 17 18 18 18 18 18 18 17 17 17 16 16 16 16 15 15 15 14 14 14 14 13 13 13 13 13 13
15 17 18 18 18 18 17 17 17 17 17 17 17 18 18 18 18 18 18 18 18 18 18 18 17 17 16 16 16 16 15 15 15 15 14 14 14 14 13 13 13 13 13 12
14 16 17 18 18 18 18 18 17 17 17 17 17 17 17 18 18 19 19 19 19 18 18 18 17 17 16 16 16 16 15 15 15 15 14 14 14 13 13 13 13 13 12 12
14 16 16 18 18 19 18 18 18 17 17 16 16 15 16 18 18 18 18 18 18 18 18 18 17 17 16 16 16 16 15 15 15 14 14 14 14 13 13 13 13 12 12 12
14 15 15 17 18 18 18 18 19 19 18 17 16 17 19 19 19 18 18 18 18 18 18 17 17 17 16 16 16 16 15 15 15 14 14 14 13 13 13 12 12 12 12 11
13 15 16 17 17 17 18 20 20 20 19 19 19 19 19 19 19 18 18 18 18 17 17 17 17 16 16 16 16 15 15 15 14 14 14 13 13 13 12 12 12 12 11 11
14 15 16 17 18 19 20 20 20 20 20 19 19 18 19 18 18 18 18 18 17 17 17 17 16 16 16 16 15 15 15 14 14 14 13 13 13 13 12 12 12 11 11 11
13 14 16 18 19 20 20 20 20 20 20 19 19 19 18 18 18 18 17 17 17 17 17 16 16 16 16 15 15 15 15 14 14 13 13 13 12 12 12 12 11 11 11 11
13 14 16 18 19 19 20 20 20 20 19 19 19 18 18 18 17 17 17 17 17 16 16 16 16 16 15 15 15 15 14 14 14 13 13 13 12 12 12 11 11 11 10 10
14 16 15 17 19 19 19 19 19 19 19 19 19 18 18 17 17 17 17 16 16 16 16 15 15 15 15 15 14 14 14 14 13 13 12 12 12 11 11 11 10 10 10 9
18 18 18 18 18 19 19 19 19 19 19 18 18 18 17 17 17 16 16 16 16 15 15 15 15 15 14 14 14 14 14 13 13 12 12 12 11 11 11 10 10 10 9 9
17 17 17 18 18 18 18 18 18 18 18 18 18 17 17 16 16 16 16 15 15 15 15 14 14 14 14 14 13 13 13 13 12 12 12 11 11 11 10 10 10 10 9 9
17 17 17 17 17 18 18 17 17 17 17 17 17 17 16 16 16 15 15 15 15 14 14 14 14 14 13 13 13 13 13 12 12 12 11 11 11 10 10 10 9 9 9 8
16 17 17 17 17 17 17 17 17 17 17 16 16 16 16 16 15 15 15 14 14 14 14 13 13 13 13 13 12 12 12 12 12 11 11 11 10 10 9 9 9 8 8 8
16 15 16 16 16 16 16 17 17 16 16 16 16 15 15 15 15 14 14 14 14 13 13 13 13 13 12 12 12 12 12 11 11 11 11 10 10 10 9 9 8 8 8 7
16 16 16 16 16 16 16 16 16 16 16 15 15 15 15 14 14 14 14 13 13 13 13 13 12 12 12 12 12 11 11 11 11 10 10 10 9 9 9 8 8 7 7 7
16 16 16 16 16 16 15 16 16 15 15 15 15 15 14 14 14 14 13 13 13 13 12 12 12 12 11 11 11 11 11 10 10 10 9 9 9 8 8 7 7 7 6 6
15 15 15 15 15 15 15 15 15 15 15 14 14 14 14 14 13 13 13 13 13 13 12 12 11 11 11 11 10 10 10 10 9 9 9 8 8 8 7 7 7 6 6 5
14 14 15 15 15 15 15 14 14 14 14 14 14 14 13 13 13 13 12 12 12 12 12 11 11 11 10 10 10 10 9 9 9 9 8 8 8 7 7 6 6 6 5 5
14 14 14 14 14 14 14 14 14 14 13 13 13 13 13 13 12 12 12 12 12 11 11 11 11 10 10 10 9 9 9 9 8 8 8 7 7 7 6 6 5 5 5 4
13 13 13 13 13 13 13 13 13 13 13 13 13 13 13 12 12 12 12 11 11 11 11 10 10 10 9 9 9 9 8 8 8 8 7 7 7 6 6 5 5 5 4 4
12 12 12 13 13 13 13 13 13 13 13 13 12 12 12 12 12 11 11 11 11 10 10 10 10 9 9 9 9 8 8 8 7 7 7 6 6 6 5 5 4 4 4 3
12 12 12 12 12 12 12 12 12 12 12 12 12 12 11 11 11 11 11 10 10 10 10 9 9 9 8 8 8 8 7 7 7 6 6 6 5 5 5 4 4 4 3 3
11 11 11 11 11 11 11 11 11 11 11 11 11 11 11 11 10 10 10 10 10 9 9 9 8 8 8 8 7 7 7 6 6 6 6 5 5 4 4 4 3 3 3 2
10 10 10 10 10 10 11 11 11 11 11 11 10 10 10 10 10 10 9 9 9 9 8 8 8 8 7 7 7 6 6 6 5 5 5 5 4 4 4 3 3 3 2 2
Wind_Speed
4 3 4 4 5 7 7 8 8 8 8 10 7 6 6 6 6 7 8 8 9 9 8 8 7 7 7 6 6 7 7 6 6 5 4 4 4 3 3 3 4 3 3 3
1 1 3 3 5 7 7 6 7 6 8 8 4 4 4 6 8 9 9 9 9 9 9 9 9 9 8 7 7 7 8 6 6 5 5 4 4 4 4 3 3 3 3 3
2 2 1 5 7 8 6 6 8 9 9 4 3 6 8 9 9 10 9 9 10 10 10 10 9 9 9 8 8 8 7 6 6 6 5 4 4 4 4 3 3 3 2 3
2 2 4 8 4 6 6 6 7 7 6 6 7 5 5 6 9 9 9 9 9 9 8 8 8 8 8 7 8 7 7 6 6 6 6 5 5 4 3 3 3 2 2 2
4 3 6 7 3 5 5 5 6 8 6 4 3 3 1 4 7 9 9 9 8 9 8 8 9 9 10 8 7 7 6 6 6 7 6 6 5 4 3 3 3 2 2 2
5 4 6 8 4 3 4 4 5 7 6 5 7 3 5 5 6 6 6 7 7 7 8 9 8 10 10 9 8 8 7 7 6 7 7 7 6 5 3 3 3 3 3 2
5 5 8 7 3 4 4 7 3 6 7 8 8 6 4 5 6 6 6 7 8 9 8 8 9 10 10 8 8 7 6 6 6 6 6 6 5 4 4 4 4 3 3 1
5 4 8 4 5 7 7 3 2 5 6 7 5 3 4 6 7 7 7 7 8 8 7 7 9 10 9 8 7 7 7 7 6 6 5 5 6 4 4 5 5 3 2 1
8 8 5 3 6 5 3 3 3 4 5 7 6 4 5 5 6 7 7 7 7 8 7 6 7 9 10 7 8 8 8 7 6 5 5 5 6 6 4 4 4 3 2 1
3 6 6 5 4 3 3 4 3 4 5 7 6 6 6 6 6 6 6 7 7 8 8 6 6 6 7 7 9 9 8 7 6 6 5 4 4 4 4 4 4 3 3 2
4 6 4 5 4 4 2 2 2 3 4 6 7 6 7 7 7 6 6 6 7 8 7 6 6 5 6 7 9 9 8 6 6 5 6 5 4 3 4 4 5 5 4 4
7 7 6 6 4 3 3 3 4 4 4 4 6 7 7 6 6 6 7 6 6 6 6 6 6 6 6 7 8 9 7 6 5 5 4 4 4 2 2 2 3 4 4 4
6 4 5 4 2 2 3 3 4 5 6 6 5 6 7 6 6 6 7 7 7 7 7 7 6 6 6 7 8 8 8 7 5 5 5 5 4 4 2 1 2 1 2 3
4 2 2 3 3 2 3 3 3 4 4 5 5 6 7 6 6 7 7 7 7 7 6 7 7 6 6 7 8 7 7 7 7 5 5 5 5 4 4 4 2 1 1 1
4 5 5 2 2 2 4 5 6 4 4 4 5 6 7 8 7 6 6 6 6 6 6 6 6 5 6 7 8 7 7 5 5 5 4 4 4 4 3 3 3 1 0 1
1 2 4 4 4 4 5 6 6 5 5 5 5 5 6 6 6 6 6 7 8 8 7 7 7 6 7 7 7 6 5 8 7 5 5 4 4 4 4 3 3 2 2 2
4 3 4 4 4 4 5 6 7 7 6 6 6 6 6 7 6 6 5 5 6 6 6 7 6 6 7 7 7 6 5 6 8 5 5 5 5 4 4 4 3 3 3 3
6 7 7 8 7 6 5 5 5 6 6 6 7 7 8 8 8 7 6 5 5 4 3 5 6 7 7 7 6 6 5 5 5 5 4 4 4 4 4 4 4 3 2 2
3 4 5 5 6 6 5 5 5 5 5 7 8 8 7 7 7 6 6 7 7 5 4 5 9 7 7 7 8 5 6 6 5 4 4 5 4 3 4 4 3 3 3 2
1 2 3 3 4 4 5 4 4 5 5 7 7 7 6 6 6 7 7 6 6 5 6 7 7 6 6 7 8 5 6 6 5 4 4 4 4 3 3 3 3 3 3 3
2 2 3 4 3 3 4 5 6 6 5 6 8 8 7 7 7 7 7 5 4 4 7 9 7 6 6 7 8 6 6 5 5 5 4 4 3 3 3 3 3 3 3 3
2 3 3 3 3 3 3 4 5 6 6 5 6 6 7 7 7 6 5 5 5 8 6 6 5 8 9 9 6 6 6 6 5 4 4 4 4 3 3 3 3 3 2 2
2 3 3 4 4 4 3 4 5 6 6 6 7 7 7 7 6 7 5 4 5 9 7 6 8 11 11 7 6 6 6 5 5 4 4 4 4 4 3 3 3 2 2 2
2 2 3 3 4 4 3 2 3 4 5 5 5 7 7 6 4 4 4 7 9 9 6 8 11 12 11 6 6 6 5 5 4 4 4 3 3 3 3 2 2 2 2 2
2 2 3 4 4 3 4 3 3 3 4 3 3 4 4 5 5 4 5 7 9 8 5 8 12 12 8 6 6 6 5 5 4 4 4 3 3 2 2 2 2 2 2 2
2 2 2 3 3 3 3 3 3 3 4 3 2 2 3 3 4 5 5 6 8 8 6 5 7 7 6 6 6 5 5 4 4 3 3 3 3 2 2 2 2 2 2 2
2 2 2 2 1 1 2 3 4 3 4 5 3 2 3 4 4 5 6 6 6 6 5 5 5 5 5 5 6 5 4 4 4 3 3 3 2 2 2 2 2 2 2 3
Wind_Direction
226 220 179 203 197 180 188 193 198 227 231 250 241 221 206 182 165 161 168 170 172 176 178 174 170 169 165 161 158 153 147 151 159 152 137 127 121 116 108 103 103 99 92 78
277 236 204 240 236 207 210 208 219 238 257 251 231 185 176 174 171 175 181 182 178 174 174 177 178 175 168 166 163 154 155 160 154 141 131 128 127 120 110 104 97 91 89 87
248 304 32 274 236 208 202 202 190 216 238 224 200 198 195 189 186 187 185 180 178 180 182 182 180 174 172 169 157 154 157 156 153 147 143 145 138 125 124 124 110 100 95 94
155 84 240 249 242 192 200 228 212 223 234 205 208 205 197 188 191 192 184 179 180 178 177 173 166 160 152 147 151 155 156 159 159 154 152 146 137 138 142 131 125 127 124 118
140 192 272 289 256 181 185 253 223 220 230 196 152 88 284 210 191 191 186 179 177 175 169 159 157 154 145 146 148 152 163 169 167 160 155 151 150 152 150 137 130 130 122 121
139 169 231 248 249 185 135 275 246 197 196 168 132 150 248 212 180 169 159 156 155 152 147 150 152 146 146 153 156 169 174 171 162 158 157 160 162 158 149 144 143 127 106 109
165 204 252 254 249 132 164 240 233 181 177 166 178 198 204 163 160 156 149 148 148 147 151 157 152 148 152 158 174 175 159 149 146 151 156 156 152 148 141 134 121 116 110 81
157 189 247 244 146 177 213 236 191 184 178 173 180 149 137 144 146 142 136 136 143 147 149 148 152 153 158 173 170 147 142 141 145 147 150 147 141 136 132 131 126 125 115 72
187 211 241 225 214 240 204 202 205 185 181 163 155 156 145 143 144 144 142 144 145 146 145 147 159 162 168 172 150 142 140 145 146 141 137 141 145 143 134 135 140 149 148 167
228 263 263 262 258 258 216 209 207 185 168 157 159 158 147 144 147 146 144 146 143 139 144 154 160 166 167 153 149 144 147 150 147 143 138 136 140 146 149 158 161 164 169 189
237 263 294 291 249 229 217 183 160 156 158 158 149 153 155 153 156 155 147 146 146 149 155 160 155 152 147 150 149 146 149 150 149 149 151 149 149 158 167 183 180 177 190 188
221 220 201 242 249 198 172 183 173 153 138 141 149 153 150 151 154 151 148 145 143 145 149 152 150 149 148 152 151 149 150 154 157 155 151 151 147 114 83 149 168 174 175 176
221 222 211 237 244 199 183 187 173 164 159 149 141 144 146 147 149 146 146 148 154 157 155 150 149 151 154 154 153 155 160 161 157 156 156 158 158 156 149 51 68 151 189 188
218 189 229 233 227 196 161 145 123 118 129 135 136 135 137 136 140 148 158 162 155 148 148 149 150 159 161 156 153 153 155 159 158 163 164 164 167 168 165 163 168 274 301 255
229 205 201 196 155 136 131 127 124 126 123 121 131 139 144 148 157 162 156 147 139 139 147 151 155 163 157 153 151 153 153 158 158 157 157 157 156 155 159 165 173 190 299 324
194 145 151 155 170 156 142 146 151 161 156 150 149 155 156 153 149 145 145 149 151 162 168 166 171 168 156 151 148 149 156 159 155 153 151 150 153 158 165 171 177 187 212 239
158 181 175 176 186 186 179 177 174 172 168 167 167 155 140 134 133 140 152 161 163 169 171 170 169 158 156 154 150 152 149 157 153 149 158 164 166 173 178 179 189 205 229 234
202 203 193 186 188 189 186 177 175 174 175 174 157 149 151 156 163 166 159 143 131 131 158 165 157 153 155 154 151 150 151 154 156 159 162 165 171 175 176 184 198 210 238 254
213 200 193 190 184 178 179 180 182 177 168 159 158 164 169 170 165 157 148 146 154 170 188 168 157 152 156 161 152 148 151 151 151 154 160 167 166 172 178 187 200 215 225 233
193 164 163 164 162 167 174 173 166 163 164 158 155 155 161 167 160 155 156 171 191 188 170 161 157 156 159 162 155 151 154 155 156 157 156 162 172 182 189 194 201 213 221 229
174 160 153 155 160 168 169 162 159 164 164 159 163 171 173 171 165 159 159 182 205 162 155 159 159 161 161 162 156 152 154 155 158 162 166 171 176 183 191 199 207 214 220 232
180 172 169 161 158 166 171 162 158 157 157 162 165 162 159 163 166 168 180 187 177 164 157 162 163 166 165 158 153 154 158 159 161 163 167 171 176 187 197 202 210 219 221 226
178 171 166 165 168 168 157 157 160 159 164 171 171 170 172 175 172 169 189 193 165 167 162 167 168 165 161 153 152 157 161 163 167 171 173 176 180 186 194 203 212 216 221 227
153 156 159 151 136 136 151 177 168 163 162 166 172 171 164 160 172 189 170 165 167 164 163 167 166 163 156 150 153 157 161 163 167 167 166 168 172 178 186 193 207 225 228 232
153 144 135 132 143 170 177 162 141 138 136 141 151 162 164 163 169 173 157 161 165 160 155 167 165 160 154 150 154 157 158 161 163 160 159 161 167 173 184 194 202 218 232 240
138 146 162 173 176 176 166 155 156 157 147 143 142 147 143 138 144 145 146 152 155 155 151 153 156 153 151 151 150 149 149 155 157 155 156 159 164 168 179 197 213 218 240 256
113 116 107 85 74 137 152 157 160 165 162 160 160 161 150 142 140 142 142 143 146 146 146 146 148 150 149 147 145 145 147 150 152 154 155 158 165 177 197 215 239 249 253 257
Height
1516 1514 1515 1516 1517 1519 1523 1525 1531 1525 1521 1513 1509 1510 1510 1512 1514 1517 1520 1523 1526 1529 1533 1537 1541 1545 1548 1551 1554 1556 1558 1560 1562 1564 1565 1566 1567 1568 1569 1569 1570 1570 1570 1570
1515 1512 1514 1515 1514 1515 1516 1517 1519 1518 1515 1505 1506 1507 1508 1510 1512 1515 1517 1520 1523 1527 1531 1535 1539 1542 1545 1549 1552 1555 1557 1559 1561 1562 1564 1565 1566 1567 1568 1569 1569 1570 1570 1570
1522 1516 1514 1520 1510 1510 1511 1509 1511 1514 1508 1503 1505 1505 1505 1507 1509 1511 1514 1517 1521 1524 1528 1532 1536 1540 1543 1547 1550 1553 1555 1557 1559 1561 1562 1564 1565 1566 1567 1568 1568 1569 1569 1569
1523 1520 1527 1512 1499 1500 1503 1502 1502 1501 1499 1499 1500 1501 1503 1504 1506 1508 1511 1515 1519 1522 1527 1531 1534 1538 1542 1545 1548 1551 1553 1555 1557 1559 1561 1562 1563 1564 1566 1566 1567 1568 1568 1568
1526 1526 1520 1506 1498 1498 1501 1501 1496 1497 1496 1497 1499 1501 1502 1502 1503 1506 1509 1513 1516 1520 1525 1529 1532 1536 1540 1543 1546 1548 1551 1553 1555 1557 1559 1560 1561 1563 1564 1565 1566 1566 1567 1567
1524 1524 1524 1506 1493 1492 1497 1502 1491 1492 1493 1495 1498 1504 1501 1499 1501 1504 1508 1511 1515 1519 1523 1527 1530 1534 1537 1540 1543 1546 1549 1551 1553 1555 1557 1558 1559 1561 1562 1563 1564 1565 1565 1566
1521 1521 1513 1495 1491 1493 1506 1501 1488 1488 1490 1492 1494 1495 1496 1497 1500 1503 1506 1510 1514 1517 1521 1525 1528 1532 1535 1538 1541 1544 1547 1549 1552 1553 1555 1556 1558 1559 1560 1561 1562 1563 1564 1564
1518 1519 1511 1489 1490 1493 1492 1486 1486 1487 1488 1489 1491 1493 1495 1496 1498 1501 1505 1509 1512 1516 1519 1523 1527 1530 1533 1536 1539 1542 1545 1547 1549 1551 1553 1555 1556 1557 1559 1560 1560 1561 1562 1562
1501 1500 1489 1486 1486 1485 1485 1485 1485 1486 1487 1488 1490 1492 1493 1495 1498 1501 1504 1507 1511 1514 1518 1521 1525 1528 1531 1534 1537 1540 1543 1545 1547 1549 1551 1553 1554 1555 1556 1557 1558 1559 1559 1559
1494 1489 1485 1484 1483 1483 1484 1484 1484 1485 1486 1487 1488 1490 1492 1494 1497 1499 1502 1506 1509 1512 1516 1519 1523 1526 1529 1532 1535 1538 1540 1543 1545 1547 1549 1550 1552 1553 1554 1555 1556 1556 1557 1557
1490 1485 1482 1481 1481 1481 1482 1482 1483 1484 1485 1486 1487 1489 1491 1493 1496 1498 1501 1504 1508 1511 1514 1517 1521 1524 1527 1530 1533 1535 1538 1540 1542 1544 1546 1548 1549 1551 1552 1553 1554 1554 1554 1555
1484 1479 1480 1479 1479 1480 1480 1481 1482 1482 1484 1485 1487 1488 1490 1492 1495 1497 1500 1503 1506 1509 1512 1516 1519 1522 1525 1528 1530 1532 1535 1537 1539 1541 1543 1545 1546 1548 1549 1550 1551 1552 1552 1552
1474 1475 1476 1476 1477 1478 1479 1480 1480 1482 1482 1484 1486 1488 1490 1491 1494 1496 1499 1502 1504 1507 1511 1514 1517 1519 1522 1525 1527 1530 1532 1534 1537 1539 1540 1542 1543 1545 1546 1547 1548 1548 1549 1549
1471 1472 1473 1473 1475 1476 1477 1479 1480 1481 1483 1484 1485 1487 1489 1491 1493 1495 1497 1500 1503 1506 1509 1512 1515 1517 1520 1522 1525 1527 1530 1532 1534 1536 1537 1539 1540 1542 1543 1544 1544 1545 1546 1546
1469 1470 1471 1472 1473 1474 1476 1477 1479 1480 1482 1484 1485 1486 1488 1490 1492 1494 1497 1499 1502 1505 1507 1510 1512 1515 1518 1520 1522 1525 1527 1529 1531 1533 1535 1536 1538 1539 1540 1541 1541 1541 1541 1542
1466 1467 1468 1469 1471 1472 1474 1475 1477 1479 1480 1482 1484 1486 1487 1489 1491 1494 1496 1498 1500 1502 1505 1507 1510 1513 1515 1518 1520 1522 1524 1526 1528 1530 1532 1533 1534 1535 1536 1537 1537 1537 1537 1538
1463 1464 1465 1467 1469 1470 1472 1473 1475 1477 1478 1480 1482 1484 1486 1488 1490 1492 1494 1497 1499 1501 1504 1506 1508 1510 1513 1515 1517 1519 1521 1523 1525 1527 1528 1529 1531 1532 1532 1533 1533 1534 1534 1534
1460 1461 1463 1464 1466 1468 1469 1471 1473 1475 1477 1478 1481 1482 1484 1486 1488 1490 1493 1495 1497 1499 1502 1504 1506 1508 1510 1512 1515 1516 1518 1520 1522 1523 1525 1526 1527 1528 1528 1529 1529 1530 1530 1530
1458 1459 1460 1462 1464 1466 1467 1469 1471 1473 1475 1477 1478 1480 1482 1485 1487 1489 1491 1493 1495 1496 1499 1501 1503 1505 1508 1510 1512 1513 1515 1517 1518 1520 1521 1522 1523 1524 1525 1525 1526 1526 1526 1526
1455 1457 1458 1460 1462 1463 1465 1467 1469 1471 1472 1474 1476 1478 1480 1482 1485 1487 1489 1490 1492 1494 1496 1498 1500 1502 1505 1507 1509 1510 1512 1514 1515 1516 1518 1519 1520 1521 1521 1522 1522 1522 1522 1522
1453 1454 1456 1458 1460 1462 1463 1465 1466 1468 1470 1472 1474 1475 1477 1480 1482 1484 1486 1487 1490 1492 1494 1496 1498 1500 1502 1504 1506 1507 1509 1510 1512 1513 1514 1515 1516 1517 1517 1518 1518 1518 1517 1517
1450 1452 1453 1455 1457 1459 1461 1463 1464 1466 1467 1469 1472 1473 1475 1477 1479 1481 1483 1485 1487 1489 1491 1493 1495 1497 1499 1501 1502 1504 1506 1507 1509 1510 1511 1512 1513 1513 1513 1514 1514 1513 1513 1513
1448 1449 1451 1453 1455 1457 1459 1460 1462 1463 1465 1467 1469 1471 1472 1474 1476 1478 1480 1482 1484 1486 1488 1490 1492 1494 1496 1497 1499 1501 1502 1504 1505 1507 1508 1508 1509 1510 1510 1510 1510 1510 1509 1509
1446 1447 1449 1451 1453 1454 1456 1457 1459 1461 1463 1465 1466 1468 1470 1472 1474 1476 1478 1480 1481 1483 1485 1487 1489 1491 1493 1494 1496 1497 1499 1500 1502 1503 1504 1505 1506 1506 1506 1506 1506 1506 1505 1504
1445 1446 1447 1448 1450 1451 1453 1455 1457 1458 1461 1462 1464 1466 1468 1470 1471 1473 1475 1477 1479 1480 1482 1484 1486 1488 1489 1491 1493 1494 1496 1497 1499 1500 1501 1501 1502 1502 1502 1503 1502 1502 1501 1500
1444 1445 1446 1447 1448 1449 1451 1453 1454 1456 1458 1459 1461 1464 1465 1467 1469 1471 1472 1474 1476 1478 1479 1481 1483 1485 1486 1488 1489 1491 1493 1494 1495 1496 1497 1498 1499 1499 1499 1499 1499 1498 1497 1496
1442 1443 1444 1445 1446 1448 1449 1450 1452 1453 1455 1457 1459 1461 1463 1465 1466 1468 1469 1471 1473 1475 1477 1479 1480 1482 1484 1485 1487 1488 1490 1491 1492 1493 1494 1495 1495 1496 1496 1495 1495 1494 1493 1492